| time (UTC) | temp C | wind direction | speed KPH | gust KPH | rain 1hr cm | rain 24hr cm | rain mn cm | humidity % | barometer mb |
| 20260505014156 | 11 | 294 | 1.6 | 1.6 | 0.00 | 0.00 | 0.00 | 77 | 1060.0 |
| 20260505013156 | 11 | 279 | 0.0 | 0.0 | 0.00 | 0.00 | 0.00 | 79 | 1059.9 |
| 20260505012152 | 11 | 298 | 1.6 | 1.6 | 0.00 | 0.00 | 0.00 | 77 | 1059.7 |
| 20260505011149 | 12 | 264 | 0.0 | 0.0 | 0.00 | 0.00 | 0.00 | 78 | 1059.8 |
| 20260505010148 | 12 | 264 | 0.0 | 0.0 | 0.00 | 0.00 | 0.00 | 76 | 1059.8 |
| 20260505005147 | 12 | 267 | 0.0 | 0.0 | 0.00 | 0.00 | 0.00 | 74 | 1060.1 |
| 20260505004146 | 12 | 264 | 0.0 | 0.0 | 0.00 | 0.00 | 0.00 | 73 | 1059.9 |
| 20260505003141 | 13 | 264 | 0.0 | 0.0 | 0.00 | 0.00 | 0.00 | 70 | 1059.8 |
| 20260505002141 | 13 | 264 | 0.0 | 0.0 | 0.00 | 0.00 | 0.00 | 71 | 1059.6 |
| 20260505001141 | 15 | 264 | 0.0 | 0.0 | 0.00 | 0.00 | 0.00 | 66 | 1059.6 |
| 20260505000136 | 15 | 264 | 0.0 | 0.0 | 0.00 | 0.00 | 0.00 | 62 | 1059.6 |
| 20260504235134 | 16 | 264 | 0.0 | 0.0 | 0.00 | 0.00 | 0.00 | 57 | 1059.7 |
| 20260504234129 | 17 | 264 | 1.6 | 1.6 | 0.00 | 0.00 | 0.00 | 53 | 1059.8 |
| 20260504233126 | 17 | 256 | 4.8 | 4.8 | 0.00 | 0.00 | 0.00 | 52 | 1059.5 |
| 20260504232121 | 18 | 259 | 1.6 | 1.6 | 0.00 | 0.00 | 0.00 | 51 | 1059.6 |
| 20260504231120 | 18 | 262 | 4.8 | 4.8 | 0.00 | 0.00 | 0.00 | 51 | 1059.6 |
| 20260504230115 | 18 | 243 | 6.4 | 8.0 | 0.00 | 0.00 | 0.00 | 50 | 1059.5 |
| 20260504225115 | 18 | 246 | 6.4 | 9.7 | 0.00 | 0.00 | 0.00 | 50 | 1059.6 |
| 20260504224114 | 18 | 248 | 3.2 | 8.0 | 0.00 | 0.00 | 0.00 | 50 | 1059.5 |
| 20260504223113 | 18 | 234 | 11.3 | 11.3 | 0.00 | 0.00 | 0.00 | 50 | 1059.5 |
| 20260504222113 | 18 | 262 | 4.8 | 4.8 | 0.00 | 0.00 | 0.00 | 51 | 1059.7 |
| 20260504221113 | 18 | 251 | 11.3 | 12.9 | 0.00 | 0.00 | 0.00 | 50 | 1059.8 |
| 20260504220113 | 18 | 259 | 8.0 | 11.3 | 0.00 | 0.00 | 0.00 | 50 | 1059.3 |
| 20260504215113 | 18 | 282 | 4.8 | 4.8 | 0.00 | 0.00 | 0.00 | 51 | 1059.5 |
| 20260504214110 | 18 | 243 | 6.4 | 9.7 | 0.00 | 0.00 | 0.00 | 50 | 1059.2 |
| 20260504213110 | 18 | 237 | 8.0 | 11.3 | 0.00 | 0.00 | 0.00 | 49 | 1059.3 |
| 20260504212109 | 18 | 287 | 1.6 | 1.6 | 0.00 | 0.00 | 0.00 | 50 | 1059.6 |
| 20260504211109 | 18 | 215 | 8.0 | 12.9 | 0.00 | 0.00 | 0.00 | 49 | 1059.8 |
| 20260504210108 | 18 | 249 | 4.8 | 8.0 | 0.00 | 0.00 | 0.00 | 52 | 1059.5 |
| 20260504205103 | 18 | 247 | 9.7 | 9.7 | 0.00 | 0.00 | 0.00 | 53 | 1059.6 |
| 20260504204100 | 18 | 235 | 4.8 | 8.0 | 0.00 | 0.00 | 0.00 | 51 | 1059.8 |
| 20260504203055 | 18 | 270 | 3.2 | 3.2 | 0.00 | 0.00 | 0.00 | 51 | 1060.0 |
| 20260504202054 | 18 | 230 | 17.7 | 22.5 | 0.00 | 0.00 | 0.00 | 51 | 1059.8 |
| 20260504201048 | 18 | 300 | 8.0 | 9.7 | 0.00 | 0.00 | 0.00 | 51 | 1059.8 |
| 20260504200047 | 18 | 252 | 12.9 | 16.1 | 0.00 | 0.00 | 0.00 | 51 | 1059.9 |
| 20260504195046 | 17 | 266 | 8.0 | 11.3 | 0.00 | 0.00 | 0.00 | 52 | 1060.0 |
| 20260504194043 | 17 | 256 | 4.8 | 8.0 | 0.00 | 0.00 | 0.00 | 52 | 1060.1 |
| 20260504193039 | 17 | 247 | 12.9 | 14.5 | 0.00 | 0.00 | 0.00 | 53 | 1060.0 |
| 20260504192035 | 17 | 226 | 8.0 | 9.7 | 0.00 | 0.00 | 0.00 | 55 | 1060.0 |
| 20260504191034 | 17 | 234 | 11.3 | 12.9 | 0.00 | 0.00 | 0.00 | 54 | 1060.3 |
| 20260504190032 | 17 | 241 | 16.1 | 17.7 | 0.00 | 0.00 | 0.00 | 53 | 1060.5 |
| 20260504185032 | 17 | 248 | 14.5 | 16.1 | 0.00 | 0.00 | 0.00 | 54 | 1060.5 |
| 20260504184028 | 17 | 278 | 3.2 | 3.2 | 0.00 | 0.00 | 0.00 | 56 | 1060.3 |
| 20260504183024 | 17 | 247 | 12.9 | 16.1 | 0.00 | 0.00 | 0.00 | 55 | 1060.7 |
| 20260504182024 | 16 | 256 | 11.3 | 11.3 | 0.00 | 0.00 | 0.00 | 59 | 1060.3 |
| 20260504181019 | 17 | 255 | 6.4 | 8.0 | 0.00 | 0.00 | 0.00 | 57 | 1060.7 |
| 20260504180016 | 16 | 224 | 6.4 | 9.7 | 0.00 | 0.00 | 0.00 | 58 | 1060.8 |
| 20260504175016 | 16 | 245 | 9.7 | 12.9 | 0.00 | 0.00 | 0.00 | 59 | 1060.9 |
| 20260504174016 | 16 | 242 | 11.3 | 14.5 | 0.00 | 0.00 | 0.00 | 59 | 1060.7 |
| 20260504173016 | 16 | 242 | 8.0 | 11.3 | 0.00 | 0.00 | 0.00 | 58 | 1060.8 |
| 20260504172014 | 15 | 234 | 1.6 | 3.2 | 0.00 | 0.00 | 0.00 | 60 | 1060.9 |
| 20260504171014 | 15 | 258 | 4.8 | 9.7 | 0.00 | 0.00 | 0.00 | 62 | 1060.7 |
| 20260504150952 | 12 | 333 | 1.6 | 1.6 | 0.00 | 0.00 | 0.00 | 65 | 1061.8 |
| 20260504140950 | 10 | 241 | 16.1 | 22.5 | 0.00 | 0.00 | 0.00 | 68 | 1061.5 |
| 20260504081840 | 6 | 251 | 1.6 | 3.2 | 0.00 | 0.00 | 0.00 | 95 | 1062.2 |
| 20260504080838 | 6 | 269 | 0.0 | 1.6 | 0.00 | 0.00 | 0.00 | 96 | 1062.1 |
| 20260504045808 | 5 | 237 | 8.0 | 9.7 | 0.00 | 0.00 | 0.00 | 99 | 1063.2 |
| 20260504044805 | 5 | 244 | 6.4 | 8.0 | 0.00 | 0.00 | 0.00 | 99 | 1063.6 |
| 20260504043800 | 5 | 268 | 0.0 | 1.6 | 0.00 | 0.00 | 0.00 | 99 | 1063.4 |
| 20260504042755 | 5 | 255 | 3.2 | 3.2 | 0.00 | 0.00 | 0.00 | 99 | 1063.2 |
| 20260504041753 | 5 | 267 | 1.6 | 1.6 | 0.00 | 0.00 | 0.00 | 99 | 1063.1 |
| 20260504040750 | 5 | 262 | 0.0 | 1.6 | 0.00 | 0.00 | 0.00 | 99 | 1063.1 |
| 20260504035750 | 5 | 249 | 1.6 | 1.6 | 0.00 | 0.00 | 0.00 | 99 | 1063.2 |
| 20260504034745 | 5 | 243 | 4.8 | 4.8 | 0.00 | 0.00 | 0.00 | 99 | 1063.4 |
| 20260504033745 | 5 | 242 | 4.8 | 4.8 | 0.00 | 0.00 | 0.00 | 99 | 1063.4 |
| 20260504032745 | 5 | 266 | 0.0 | 0.0 | 0.00 | 0.00 | 0.00 | 99 | 1063.2 |
| 20260504031745 | 5 | 261 | 1.6 | 1.6 | 0.00 | 0.00 | 0.00 | 99 | 1063.5 |
| 20260504030744 | 5 | 246 | 4.8 | 4.8 | 0.00 | 0.00 | 0.00 | 99 | 1063.7 |
| 20260504025744 | 5 | 254 | 3.2 | 3.2 | 0.00 | 0.00 | 0.00 | 99 | 1063.8 |
| 20260504024744 | 5 | 249 | 3.2 | 3.2 | 0.00 | 0.00 | 0.00 | 99 | 1063.9 |
| 20260504023743 | 5 | 257 | 3.2 | 3.2 | 0.00 | 0.00 | 0.00 | 98 | 1063.6 |
| 20260504022741 | 5 | 257 | 3.2 | 3.2 | 0.00 | 0.00 | 0.00 | 96 | 1064.2 |
| 20260504021740 | 5 | 258 | 1.6 | 1.6 | 0.00 | 0.00 | 0.00 | 95 | 1063.9 |
| 20260504020740 | 5 | 257 | 1.6 | 1.6 | 0.00 | 0.00 | 0.00 | 94 | 1064.1 |
| 20260504015739 | 5 | 249 | 1.6 | 1.6 | 0.00 | 0.00 | 0.00 | 93 | 1063.9 |
| 20260504014737 | 5 | 256 | 1.6 | 1.6 | 0.00 | 0.00 | 0.00 | 92 | 1064.1 |